Starlink 5362

operational
NORAD ID: 55493 Int'l Des: 2023-015 Owner: SPXS Country: US Constellation: starlink
LEOCIRCULAR

关于 Starlink 5362

正在加载描述...

实时位置

正在加载3D地球...

即将过境

高度历史

Altitude vs Time

uPlot chart will show altitude changes over time

两行轨道根数

1 55493U 23015AW 26062.16668981 .00041875 00000-0 27658-2 0 9993
2 55493 43.0012 14.2617 0001737 273.7024 120.4398 15.06755831 5768
Epoch: Mar 3, 2026 • Age: 14 hours

当前状态

高度 550.3 km
速度 7.59 km/s
星下点 42.58°N, 104.72°E
发射日期 Feb 2, 2023
运行时间 3 years
类型 internet

技术详情

分类 Payload
质量 305.00 kg
干质量 290.00 kg
总质量 305.00 kg
长度 0.20 m
直径 2.80 m
跨度 9.00 m
形状 Box + pan
制造商 SPXS
平台类型 Starlink
阶段状态 In Orbit
所有者/国家 SPXS/US

大型星座

Loading constellations...